User: anonymous   Login
Location: Unspecified
(0.0000°N, 0.0000°E)
Time: 05:18:09
(UTC+00:00)
Language:

Tiros 10 - Orbit

View from above orbital plane
View from above orbital plane
View from above satellite
View from above satellite

Ground track
Ground track

The orbit data is extracted from the following two-line orbital elements,

1  1430U 65051A   18233.00004630 -.00000007 +00000-0 +10888-4 0  9992
2  1430 098.2027 012.7420 0057230 037.0307 323.4811 14.40230229784526
Epoch (UTC): 21 August 2018 00:00:04
Eccentricity: 0.0057230
inclination: 98.2027°
perigee height: 717 km
apogee height: 798 km
right ascension of ascending node: 12.7420°
argument of perigee: 37.0307°
revolutions per day: 14.40230229
mean anomaly at epoch: 323.4811°
orbit number at epoch: 78452

The dashed part of the orbit path shows where the satellite is in the earth's shadow,  

DLR